Location: Austin
(30.3000°N, 97.7500°W)
Time: 23:28:43
(UTC-05:00)

Meteor 2-3 Rocket - Pass Details

Date: 06 May 2026
Orbit: 845 x 880 km, 81.2° (Epoch: 13 May)

Event Time Altitude Azimuth Distance (km) Brightness Sun altitude
Rises 22:00:23 0° 358° (N) 3,412 7.4 -21.4°
Reaches altitude 10° 22:02:52 10° 4° (N) 2,477 6.5 -21.9°
Maximum altitude 22:08:21 53° 80° (E) 1,041 3.9 -22.8°
Enters shadow 22:09:01 50° 106° (ESE) 1,078 3.8 -22.9°
